This is the latest recevied weather packets stored in our database for station/object M0JUI-1. If no packets are shown the sender has not sent any weather packets the latest 10 day(s).
| Time | Temp. | Humidity | Pressure | Rain* | Wind** | Luminosity | Snow |
|---|---|---|---|---|---|---|---|
| 1777878819 | 8.89° C | 3% | 1015.5 hPa | 0 mm | - | 37 W/m² | - |
| 1777878519 | 8.89° C | 4% | 1015.3 hPa | 0 mm | - | 41 W/m² | - |
| 1777878219 | 8.89° C | 4% | 1015.4 hPa | 0 mm | - | 33 W/m² | - |
| 1777877919 | 8.89° C | 5% | 1015.3 hPa | 0 mm | - | 34 W/m² | - |
| 1777877619 | 8.89° C | 4% | 1015.2 hPa | 0 mm | - | 29 W/m² | - |
| 1777877319 | 8.89° C | 4% | 1015.1 hPa | 0 mm | - | 28 W/m² | - |
| 1777877019 | 8.89° C | 4% | 1015.4 hPa | 0 mm | - | 35 W/m² | - |
| 1777876719 | 8.89° C | 5% | 1015.1 hPa | 0 mm | - | 32 W/m² | - |
| 1777876419 | 8.89° C | 5% | 1015.1 hPa | 0 mm | - | 26 W/m² | - |
| 1777876119 | 8.89° C | 5% | 1015.2 hPa | 0 mm | - | 20 W/m² | - |
| 1777875819 | 8.89° C | 5% | 1015 hPa | 0 mm | - | 19 W/m² | - |
| 1777875507 | 8.89° C | 4% | 1015.1 hPa | 0 mm | - | 19 W/m² | - |
| 1777875207 | 8.89° C | 4% | 1015 hPa | 0 mm | - | 19 W/m² | - |
| 1777874907 | 8.89° C | 4% | 1014.8 hPa | 0 mm | - | 17 W/m² | - |
| 1777874608 | 8.89° C | 4% | 1014.8 hPa | 0 mm | - | 16 W/m² | - |
| 1777874307 | 8.89° C | 3% | 1014.9 hPa | 0 mm | - | 15 W/m² | - |
| 1777874007 | 8.89° C | 3% | 1014.9 hPa | 0 mm | - | 13 W/m² | - |
| 1777873707 | 8.89° C | 2% | 1014.7 hPa | 0 mm | - | 12 W/m² | - |
| 1777873396 | 8.89° C | 2% | 1014.7 hPa | 0 mm | - | 11 W/m² | - |
| 1777873095 | 8.89° C | 2% | 1014.7 hPa | 0 mm | - | 9 W/m² | - |
| 1777872795 | 8.33° C | 2% | 1014.6 hPa | 0 mm | - | 8 W/m² | - |
| 1777872483 | 8.33° C | 2% | 1014.4 hPa | 0 mm | - | 11 W/m² | - |
| 1777872183 | 8.33° C | 2% | 1014.4 hPa | 0 mm | - | 10 W/m² | - |
| 1777871884 | 8.33° C | 2% | 1014.6 hPa | 0 mm | - | 10 W/m² | - |
| 1777871571 | 8.89° C | 1% | 1014.2 hPa | 0 mm | - | 7 W/m² | - |
* Rain latest hour (hover to see other rain measurements)
** Current wind speed in m/s (hover to see current wind gust speed)